This is the latest recevied weather packets stored in our database for station/object K9ZOG. If no packets are shown the sender has not sent any weather packets the latest 1 day(s).
| Time | Temp. | Humidity | Pressure | Rain* | Wind** | Luminosity | Snow |
|---|---|---|---|---|---|---|---|
| 1778082253 | 11.11° C | 39% | 1013.7 hPa | 0 mm | - | 475 W/m² | - |
| 1778081953 | 11.11° C | 40% | 1013.7 hPa | 0 mm | - | 523 W/m² | - |
| 1778081655 | 11.11° C | 41% | 1013.6 hPa | 0 mm | - | 814 W/m² | - |
| 1778080753 | 11.11° C | 41% | 1013.6 hPa | 0 mm | - | 418 W/m² | - |
| 1778079855 | 11.11° C | 42% | 1013.5 hPa | 0 mm | - | 383 W/m² | - |
| 1778079560 | 10.56° C | 45% | 1013.6 hPa | 0 mm | - | 813 W/m² | - |
| 1778078055 | 10° C | 45% | 1013.4 hPa | 0 mm | - | 222 W/m² | - |
| 1778077755 | 10° C | 46% | 1013.3 hPa | 0 mm | - | 199 W/m² | - |
| 1778077155 | 9.44° C | 44% | 1013.1 hPa | 0 mm | - | 362 W/m² | - |
| 1778076856 | 9.44° C | 45% | 1013.1 hPa | 0 mm | - | 263 W/m² | - |
| 1778076559 | 9.44° C | 47% | 1013.1 hPa | 0 mm | - | 383 W/m² | - |
| 1778075654 | 8.33° C | 48% | 1013 hPa | 0 mm | - | 247 W/m² | - |
| 1778075355 | 8.33° C | 50% | 1013 hPa | 0 mm | - | 163 W/m² | - |
| 1778073860 | 7.22° C | 60% | 1012.7 hPa | 0 mm | - | 78 W/m² | - |
| 1778073555 | 7.22° C | 61% | 1012.6 hPa | 0 mm | - | 73 W/m² | - |
| 1778073255 | 7.22° C | 61% | 1012.5 hPa | 0 mm | - | 69 W/m² | - |
| 1778072653 | 6.67° C | 64% | 1012.4 hPa | 0 mm | - | 68 W/m² | - |
| 1778072355 | 6.67° C | 64% | 1012.4 hPa | 0 mm | - | 61 W/m² | - |
| 1778070555 | 5.56° C | 70% | 1012.5 hPa | 0 mm | - | 46 W/m² | - |
| 1778069653 | 5° C | 71% | 1012.2 hPa | 0 mm | - | 42 W/m² | - |
| 1778069356 | 4.44° C | 73% | 1012.2 hPa | 0 mm | - | 41 W/m² | - |
| 1778069055 | 4.44° C | 74% | 1012.2 hPa | 0 mm | - | 40 W/m² | - |
| 1778068753 | 3.89° C | 74% | 1012.1 hPa | 0 mm | - | 39 W/m² | - |
| 1778068453 | 3.33° C | 78% | 1012.2 hPa | 0 mm | - | 38 W/m² | - |
| 1778066057 | 2.22° C | 87% | 1012 hPa | 0 mm | - | 24 W/m² | - |
* Rain latest hour (hover to see other rain measurements)
** Current wind speed in m/s (hover to see current wind gust speed)